User: anonymous   Login
Location: Unspecified
(43.4000°N, 0.0000°E)
Time: 01:01:02
(UTC+00:00)
Language:

XW-2D - Orbit

View from above orbital plane
View from above orbital plane
View from above satellite
View from above satellite

Ground track
Ground track

The orbit data is extracted from the following two-line orbital elements,

1 40907U 15049J   19287.87247897  .00000760  00000-0  42984-4 0  9992
2 40907  97.4696 287.7041 0015048 141.1197 336.8863 15.15978607224918
Epoch (UTC): 14 October 2019 20:56:22
Eccentricity: 0.0015048
inclination: 97.4696°
perigee height: 507 km
apogee height: 528 km
right ascension of ascending node: 287.7041°
argument of perigee: 141.1197°
revolutions per day: 15.15978607
mean anomaly at epoch: 336.8863°
orbit number at epoch: 22491

The dashed part of the orbit path shows where the satellite is in the earth's shadow,  

DLR